Flag for United Kingdom Weather past 2 weeks in Portsmouth, England, United Kingdom

Now
45 °F

Sprinkles. Partly sunny.


Feels Like: 40 °F
Forecast: 46 / 53 °F
Wind: 9 mph from North

Location: Southampton / Weather Centre

Current Time: Apr 2, 2015 at 8:47:31 AM

Latest Report: Apr 2, 2015 at 8:20 AM


Visibility: 3 mi

Pressure: 30.12 "Hg

Humidity: 93%

Dew point: 43 °F

Location of PortsmouthLocation

Historic Weather in Portsmouth — Graph

°F

Portsmouth temperature yesterday

Maximum temperature yesterday: 50 °F (at 2:20 PM)
Minimum temperature yesterday: 39 °F (at 5:50 AM)
Average temperature yesterday: 46 °F

Past Weeks' High & Low Weather Summary

 TemperatureHumidityPressure
High55 °F (Mar 26, 12:50 PM)94% (Mar 26, 9:20 AM)30.51 "Hg (Mar 26, 9:20 AM)
Low28 °F (Mar 25, 6:20 AM)43% (Mar 25, 4:20 PM)29.47 "Hg (Mar 29, 12:20 PM)
Average46 °F69%30.05 "Hg
* Reported Mar 18 6:20 AM — Apr 2 7:50 AM, Portsmouth, Weather by CustomWeather, © 2015

Note: Actual official high and low records may vary slightly from our data, if they occured in-between our weather recording intervals... More about our weather records

Advertising

Portsmouth weather history for previous 24 hours

 ConditionsComfort  
Time TempWeatherWind HumidityBarometerVisibility
7:50 AM
Thu, Apr 2
45 °FSprinkles. Broken clouds.9 mph93%30.09 "Hg3 mi
7:20 AM45 °FSprinkles. Partly cloudy.14 mph87%30.09 "Hg3 mi
6:50 AM50 °FPassing clouds.13 mph82%30.04 "Hg6 mi
6:20 AM50 °FPassing clouds.14 mph82%30.04 "HgN/A
5:50 AM50 °FPartly cloudy.15 mph82%30.04 "HgN/A
10:50 PM
Wed, Apr 1
46 °FLight rain. Partly cloudy.13 mph87%30.12 "HgN/A
10:20 PM46 °FPartly cloudy.13 mph82%30.15 "HgN/A
9:50 PM46 °FScattered showers. Partly cloudy.10 mph82%30.18 "HgN/A
9:20 PM46 °FLight rain. Partly cloudy.14 mph82%30.18 "HgN/A
8:50 PM46 °FLight rain. Partly cloudy.10 mph71%30.18 "HgN/A
8:20 PM46 °FSprinkles. Broken clouds.10 mph71%30.21 "HgN/A
7:50 PM48 °FPartly sunny.13 mph62%30.21 "HgN/A
7:20 PM48 °FPartly sunny.10 mph58%30.21 "HgN/A
6:50 PM48 °FPassing clouds.16 mph54%30.21 "HgN/A
6:20 PM50 °FScattered clouds.18 mph50%30.24 "HgN/A
5:50 PM50 °FScattered showers. Scattered clouds.17 mph50%30.24 "HgN/A
5:20 PM50 °FScattered showers. Scattered clouds.15 mph50%30.24 "HgN/A
4:50 PM50 °FScattered showers. Scattered clouds.18 mph50%30.24 "HgN/A
4:20 PM50 °FScattered showers. Scattered clouds.17 mph47%30.24 "HgN/A
3:50 PM50 °FSprinkles. Scattered clouds.14 mph47%30.27 "HgN/A
3:20 PM50 °FScattered showers. Scattered clouds.12 mph47%30.27 "HgN/A
2:50 PM50 °FScattered showers. Scattered clouds.14 mph50%30.27 "HgN/A
2:20 PM50 °FScattered showers. Scattered clouds.14 mph50%30.30 "HgN/A
1:50 PM48 °FScattered showers. Scattered clouds.14 mph50%30.30 "HgN/A
1:20 PM48 °FScattered clouds.13 mph54%30.30 "HgN/A
12:50 PM48 °FScattered clouds.14 mph50%30.30 "HgN/A
12:20 PM48 °FScattered clouds.14 mph50%30.33 "HgN/A
11:50 AM48 °FScattered clouds.15 mph54%30.33 "HgN/A
11:20 AM46 °FScattered clouds.13 mph53%30.33 "HgN/A
10:50 AM48 °FScattered clouds.15 mph54%30.33 "HgN/A
10:20 AM46 °FPassing clouds.12 mph53%30.33 "HgN/A
9:50 AM45 °FPassing clouds.13 mph57%30.33 "HgN/A
9:20 AM45 °FPassing clouds.12 mph57%30.33 "HgN/A
8:50 AM43 °FPassing clouds.12 mph61%30.33 "HgN/A
8:20 AM41 °FPassing clouds.9 mph66%30.30 "HgN/A
Weather by CustomWeather, © 2015

See weather overviewHow to use our weather pages